When you browse on this site, cookies collect data to enhance your experience and personalize the content and advertising you see.
Visit our Privacy Policy to learn more. By continuing to use the site, you agree to this use of cookies and data.
  • în România
  • Lista ţărilor
  • Pe 7 zile
  • Temperatura apei
  • Hartă satelitară
  • Meteo pe hartă
  • Widget-uri
  • user-avatar
    Intrare

    Meteo pe oră la Kutaisi

    Astăzi, 20 Mai, Luni

    Timp Temperatura Precipitaţii Vânt Presiune Umiditate
    00:00 +18°C° 0 mm 1 m/s 746 mmHg 94%
    01:00 +18°C° 0 mm 1 m/s 746 mmHg 94%
    02:00 +18°C° 0 mm 1 m/s 746 mmHg 93%
    03:00 +16°C° 0 mm 1 m/s 746 mmHg 93%
    04:00 +18°C° 0 mm 1 m/s 746 mmHg 92%
    05:00 +18°C° 0 mm 1 m/s 746 mmHg 90%
    06:00 +16°C° 0 mm 0 m/s 746 mmHg 89%
    07:00 +20°C° 0 mm 1 m/s 746 mmHg 84%
    08:00 +21°C° 0 mm 1 m/s 746 mmHg 79%
    09:00 +21°C° 0 mm 2 m/s 746 mmHg 75%
    10:00 +23°C° 0 mm 2 m/s 746 mmHg 74%
    11:00 +22°C° 0 mm 3 m/s 746 mmHg 73%
    12:00 +22°C° 0 mm 3 m/s 746 mmHg 73%
    13:00 +22°C° 0.1 mm 3 m/s 746 mmHg 75%
    14:00 +22°C° 0.1 mm 3 m/s 746 mmHg 77%
    15:00 +21°C° 0.1 mm 3 m/s 747 mmHg 79%
    16:00 +21°C° 0.1 mm 2 m/s 747 mmHg 82%
    17:00 +20°C° 0.1 mm 2 m/s 747 mmHg 84%
    18:00 +21°C° 0.1 mm 1 m/s 747 mmHg 87%
    19:00 +20°C° 0 mm 1 m/s 747 mmHg 90%
    20:00 +19°C° 0 mm 1 m/s 748 mmHg 94%
    21:00 +16°C° 0 mm 0 m/s 748 mmHg 97%
    22:00 +16°C° 0 mm 0 m/s 748 mmHg 97%
    23:00 +18°C° 0 mm 1 m/s 748 mmHg 96%

    Mâine, 21 Mai, Marţi

    Timp Temperatura Precipitaţii Vânt Presiune Umiditate
    00:00 +16°C° 0 mm 1 m/s 748 mmHg 96%
    01:00 +16°C° 0 mm 1 m/s 748 mmHg 95%
    02:00 +16°C° 0 mm 1 m/s 749 mmHg 93%
    03:00 +16°C° 0 mm 2 m/s 749 mmHg 92%
    04:00 +16°C° 0 mm 2 m/s 749 mmHg 89%
    05:00 +17°C° 0 mm 2 m/s 749 mmHg 86%
    06:00 +17°C° 0 mm 2 m/s 749 mmHg 83%
    07:00 +20°C° 0 mm 2 m/s 749 mmHg 74%
    08:00 +23°C° 0 mm 2 m/s 749 mmHg 64%
    09:00 +26°C° 0 mm 2 m/s 749 mmHg 54%
    10:00 +27°C° 0 mm 1 m/s 749 mmHg 51%
    11:00 +28°C° 0 mm 1 m/s 749 mmHg 49%
    12:00 +30°C° 0 mm 1 m/s 748 mmHg 46%
    13:00 +30°C° 0.1 mm 1 m/s 748 mmHg 47%
    14:00 +30°C° 0.1 mm 1 m/s 748 mmHg 48%
    15:00 +30°C° 0.1 mm 1 m/s 748 mmHg 49%
    16:00 +29°C° 0.2 mm 1 m/s 748 mmHg 56%
    17:00 +27°C° 0.2 mm 1 m/s 748 mmHg 62%
    18:00 +26°C° 0.2 mm 1 m/s 748 mmHg 69%
    19:00 +24°C° 0.1 mm 1 m/s 748 mmHg 73%
    20:00 +23°C° 0.1 mm 2 m/s 749 mmHg 77%
    21:00 +20°C° 0.1 mm 2 m/s 749 mmHg 80%
    22:00 +19°C° 0 mm 2 m/s 749 mmHg 77%
    23:00 +19°C° 0 mm 3 m/s 749 mmHg 74%

    Poimâine, 22 Mai, Miercuri

    Timp Temperatura Precipitaţii Vânt Presiune Umiditate
    00:00 +19°C° 0 mm 3 m/s 749 mmHg 71%
    01:00 +19°C° 0 mm 4 m/s 749 mmHg 68%
    02:00 +19°C° 0 mm 4 m/s 748 mmHg 64%
    03:00 +20°C° 0 mm 4 m/s 748 mmHg 61%
    04:00 +19°C° 0 mm 4 m/s 748 mmHg 61%
    05:00 +19°C° 0 mm 4 m/s 748 mmHg 61%
    06:00 +19°C° 0 mm 4 m/s 748 mmHg 61%
    07:00 +21°C° 0 mm 4 m/s 748 mmHg 59%
    08:00 +22°C° 0 mm 4 m/s 748 mmHg 56%
    09:00 +23°C° 0 mm 4 m/s 747 mmHg 54%
    10:00 +24°C° 0.2 mm 3 m/s 747 mmHg 57%
    11:00 +25°C° 0.2 mm 2 m/s 747 mmHg 61%
    12:00 +25°C° 0.2 mm 1 m/s 747 mmHg 65%
    13:00 +25°C° 0.3 mm 1 m/s 748 mmHg 65%
    14:00 +24°C° 0.3 mm 2 m/s 748 mmHg 66%
    15:00 +24°C° 0.3 mm 2 m/s 748 mmHg 66%
    16:00 +23°C° 0.4 mm 2 m/s 748 mmHg 70%
    17:00 +23°C° 0.4 mm 1 m/s 748 mmHg 74%
    18:00 +22°C° 0.4 mm 1 m/s 748 mmHg 77%
    19:00 +21°C° 0.2 mm 1 m/s 749 mmHg 82%
    20:00 +17°C° 0.2 mm 0 m/s 749 mmHg 87%
    21:00 +16°C° 0.2 mm 0 m/s 750 mmHg 92%
    22:00 +15°C° 0.1 mm 0 m/s 749 mmHg 93%
    23:00 +15°C° 0.1 mm 0 m/s 749 mmHg 93%

    23 Mai, Joi

    Timp Temperatura Precipitaţii Vânt Presiune Umiditate
    00:00 +16°C° 0.1 mm 1 m/s 749 mmHg 93%
    01:00 +15°C° 0 mm 1 m/s 749 mmHg 93%
    02:00 +15°C° 0 mm 1 m/s 749 mmHg 92%
    03:00 +15°C° 0 mm 1 m/s 749 mmHg 91%
    04:00 +15°C° 0 mm 1 m/s 749 mmHg 90%
    05:00 +16°C° 0 mm 1 m/s 749 mmHg 88%
    06:00 +16°C° 0 mm 1 m/s 749 mmHg 86%
    07:00 +19°C° 0 mm 1 m/s 748 mmHg 77%
    08:00 +21°C° 0 mm 1 m/s 748 mmHg 68%
    09:00 +24°C° 0 mm 1 m/s 748 mmHg 59%
    10:00 +24°C° 0.1 mm 2 m/s 747 mmHg 56%
    11:00 +25°C° 0.1 mm 3 m/s 747 mmHg 52%
    12:00 +26°C° 0.1 mm 3 m/s 747 mmHg 48%
    13:00 +26°C° 0.1 mm 4 m/s 746 mmHg 48%
    14:00 +27°C° 0.1 mm 4 m/s 746 mmHg 47%
    15:00 +27°C° 0.1 mm 4 m/s 746 mmHg 47%
    16:00 +26°C° 0 mm 4 m/s 746 mmHg 51%
    17:00 +25°C° 0 mm 3 m/s 746 mmHg 56%
    18:00 +24°C° 0 mm 3 m/s 746 mmHg 61%
    19:00 +21°C° 0 mm 2 m/s 747 mmHg 68%
    20:00 +19°C° 0 mm 2 m/s 747 mmHg 76%
    21:00 +16°C° 0 mm 1 m/s 748 mmHg 83%
    22:00 +16°C° 0 mm 1 m/s 748 mmHg 81%
    23:00 +16°C° 0 mm 1 m/s 748 mmHg 79%

    24 Mai, Vineri

    Timp Temperatura Precipitaţii Vânt Presiune Umiditate
    00:00 +15°C° 0 mm 2 m/s 748 mmHg 77%
    01:00 +15°C° 0 mm 2 m/s 748 mmHg 74%
    02:00 +15°C° 0 mm 2 m/s 748 mmHg 72%
    03:00 +14°C° 0 mm 2 m/s 748 mmHg 69%
    04:00 +15°C° 0 mm 2 m/s 748 mmHg 67%
    05:00 +15°C° 0 mm 2 m/s 747 mmHg 66%
    06:00 +16°C° 0 mm 2 m/s 747 mmHg 64%
    07:00 +18°C° 0 mm 2 m/s 747 mmHg 58%
    08:00 +21°C° 0 mm 2 m/s 747 mmHg 52%
    09:00 +25°C° 0 mm 2 m/s 747 mmHg 46%
    10:00 +26°C° 0 mm 2 m/s 746 mmHg 42%
    11:00 +28°C° 0 mm 1 m/s 746 mmHg 38%
    12:00 +29°C° 0 mm 1 m/s 746 mmHg 34%
    13:00 +29°C° 0 mm 1 m/s 746 mmHg 34%
    14:00 +29°C° 0 mm 2 m/s 746 mmHg 35%
    15:00 +29°C° 0 mm 2 m/s 745 mmHg 36%
    16:00 +29°C° 0 mm 2 m/s 745 mmHg 43%
    17:00 +28°C° 0 mm 1 m/s 746 mmHg 49%
    18:00 +27°C° 0 mm 1 m/s 746 mmHg 56%
    19:00 +25°C° 0 mm 1 m/s 746 mmHg 59%
    20:00 +23°C° 0 mm 2 m/s 746 mmHg 61%
    21:00 +20°C° 0 mm 2 m/s 747 mmHg 63%
    22:00 +20°C° 0 mm 3 m/s 747 mmHg 60%
    23:00 +20°C° 0 mm 3 m/s 746 mmHg 56%

    25 Mai, Sâmbătă

    Timp Temperatura Precipitaţii Vânt Presiune Umiditate
    00:00 +20°C° 0 mm 3 m/s 746 mmHg 52%
    01:00 +20°C° 0 mm 4 m/s 746 mmHg 51%
    02:00 +20°C° 0 mm 4 m/s 745 mmHg 50%
    03:00 +20°C° 0 mm 4 m/s 745 mmHg 48%
    04:00 +21°C° 0 mm 4 m/s 745 mmHg 50%
    05:00 +21°C° 0 mm 4 m/s 745 mmHg 52%
    06:00 +21°C° 0 mm 4 m/s 745 mmHg 54%
    07:00 +25°C° 0 mm 4 m/s 744 mmHg 49%
    08:00 +27°C° 0 mm 5 m/s 744 mmHg 45%
    09:00 +30°C° 0 mm 5 m/s 743 mmHg 41%
    10:00 +32°C° 0 mm 5 m/s 743 mmHg 39%
    11:00 +34°C° 0 mm 5 m/s 742 mmHg 36%
    12:00 +36°C° 0 mm 5 m/s 742 mmHg 34%
    13:00 +36°C° 0 mm 4 m/s 742 mmHg 34%
    14:00 +37°C° 0 mm 4 m/s 742 mmHg 34%
    15:00 +38°C° 0 mm 3 m/s 742 mmHg 33%
    16:00 +34°C° 0.2 mm 3 m/s 743 mmHg 45%
    17:00 +30°C° 0.2 mm 3 m/s 743 mmHg 57%
    18:00 +27°C° 0.2 mm 3 m/s 744 mmHg 69%
    19:00 +25°C° 0.5 mm 2 m/s 745 mmHg 74%
    20:00 +23°C° 0.5 mm 2 m/s 745 mmHg 79%
    21:00 +22°C° 0.5 mm 1 m/s 746 mmHg 85%
    22:00 +21°C° 0.2 mm 1 m/s 746 mmHg 87%
    23:00 +20°C° 0.2 mm 1 m/s 746 mmHg 90%
    Arată mai mult